Torna al catalogo

STARLINK-37870

AttivoComunicazioniSSO
NORAD 69432·PAYLOAD·🇺🇸 United States

Lanciato Jun 7, 2026 da Vandenberg Space Force Base

Loading…

Prossimi Passaggi (prossime 24 ore)

TLE

AggiornatoSource: CelesTrak SupGP

Epoca: Sep 14, 2026, 21:42 UTC

1 69432C 26126N   26257.90465278  .00035311  00000+0  10966-2 0  2577
2 69432  97.2845 119.2831 0001898  93.0032 172.2809 15.33406906    16

Traccia STARLINK-37870 in tempo reale con AllMySat

Download on the App Store